• In France
  • List of Countries
  • For 7 days
  • Water Temperature
  • Satellite Maps
  • Weather Map
  • Weather Widgets
  • user-avatar
    Login

    Hourly Weather Grabowek

    Today, 18 June, Monday

    Time Temperature Precipitation Wind Pressure Humidity
    00:00 +20°C° 0 mm 1 mps 750 mmHg 76%
    01:00 +19°C° 0 mm 1 mps 749 mmHg 78%
    02:00 +19°C° 0 mm 1 mps 749 mmHg 81%
    03:00 +17°C° 0 mm 2 mps 749 mmHg 84%
    04:00 +17°C° 0 mm 2 mps 749 mmHg 87%
    05:00 +18°C° 0 mm 2 mps 750 mmHg 82%
    06:00 +19°C° 0 mm 2 mps 750 mmHg 78%
    07:00 +21°C° 0 mm 3 mps 751 mmHg 74%
    08:00 +22°C° 0.6 mm 3 mps 751 mmHg 71%
    09:00 +24°C° 0.6 mm 3 mps 751 mmHg 68%
    10:00 +25°C° 0.6 mm 3 mps 751 mmHg 65%
    11:00 +25°C° 0.5 mm 3 mps 751 mmHg 64%
    12:00 +25°C° 0.5 mm 3 mps 751 mmHg 64%
    13:00 +26°C° 0.5 mm 4 mps 751 mmHg 63%
    14:00 +25°C° 0.4 mm 4 mps 751 mmHg 64%
    15:00 +25°C° 0.4 mm 4 mps 751 mmHg 65%
    16:00 +23°C° 0.4 mm 4 mps 751 mmHg 65%
    17:00 +22°C° 0.1 mm 3 mps 751 mmHg 69%
    18:00 +21°C° 0.1 mm 3 mps 751 mmHg 73%
    19:00 +19°C° 0.1 mm 3 mps 751 mmHg 78%
    20:00 +18°C° 0 mm 2 mps 751 mmHg 79%
    21:00 +16°C° 0 mm 2 mps 751 mmHg 81%
    22:00 +15°C° 0 mm 1 mps 752 mmHg 83%
    23:00 +14°C° 0 mm 1 mps 752 mmHg 81%

    Tomorrow, 19 June, Tuesday

    Time Temperature Precipitation Wind Pressure Humidity
    00:00 +14°C° 0 mm 1 mps 752 mmHg 80%
    01:00 +13°C° 0 mm 1 mps 752 mmHg 79%
    02:00 +14°C° 0 mm 1 mps 752 mmHg 79%
    03:00 +14°C° 0 mm 1 mps 752 mmHg 78%
    04:00 +14°C° 0 mm 1 mps 751 mmHg 78%
    05:00 +16°C° 0 mm 2 mps 752 mmHg 74%
    06:00 +18°C° 0 mm 2 mps 752 mmHg 71%
    07:00 +20°C° 0 mm 3 mps 752 mmHg 68%
    08:00 +21°C° 0 mm 3 mps 752 mmHg 64%
    09:00 +22°C° 0 mm 4 mps 752 mmHg 61%
    10:00 +25°C° 0 mm 5 mps 752 mmHg 57%
    11:00 +23°C° 0.1 mm 5 mps 751 mmHg 60%
    12:00 +23°C° 0.1 mm 5 mps 751 mmHg 62%
    13:00 +23°C° 0.1 mm 5 mps 751 mmHg 65%
    14:00 +23°C° 0.1 mm 5 mps 751 mmHg 66%
    15:00 +23°C° 0.1 mm 5 mps 752 mmHg 67%
    16:00 +22°C° 0.1 mm 5 mps 752 mmHg 68%
    17:00 +21°C° 0 mm 4 mps 752 mmHg 72%
    18:00 +20°C° 0 mm 3 mps 752 mmHg 76%
    19:00 +19°C° 0 mm 3 mps 752 mmHg 79%
    20:00 +18°C° 0 mm 2 mps 752 mmHg 84%
    21:00 +16°C° 0 mm 2 mps 752 mmHg 88%
    22:00 +15°C° 0 mm 1 mps 753 mmHg 92%
    23:00 +15°C° 0 mm 2 mps 753 mmHg 92%

    Day after tomorrow, 20 June, Wednesday

    Time Temperature Precipitation Wind Pressure Humidity
    00:00 +15°C° 0 mm 2 mps 753 mmHg 92%
    01:00 +15°C° 0 mm 2 mps 753 mmHg 91%
    02:00 +15°C° 0 mm 2 mps 753 mmHg 91%
    03:00 +15°C° 0 mm 2 mps 753 mmHg 91%
    04:00 +15°C° 0 mm 2 mps 753 mmHg 91%
    05:00 +16°C° 0 mm 2 mps 754 mmHg 86%
    06:00 +17°C° 0 mm 3 mps 754 mmHg 81%
    07:00 +19°C° 0 mm 3 mps 754 mmHg 75%
    08:00 +20°C° 0 mm 3 mps 754 mmHg 68%
    09:00 +21°C° 0 mm 4 mps 754 mmHg 61%
    10:00 +22°C° 0 mm 4 mps 754 mmHg 54%
    11:00 +22°C° 0 mm 4 mps 754 mmHg 52%
    12:00 +23°C° 0 mm 4 mps 754 mmHg 50%
    13:00 +25°C° 0 mm 4 mps 754 mmHg 47%
    14:00 +25°C° 0 mm 4 mps 753 mmHg 49%
    15:00 +25°C° 0 mm 3 mps 753 mmHg 50%
    16:00 +25°C° 0 mm 3 mps 753 mmHg 51%
    17:00 +24°C° 0 mm 2 mps 753 mmHg 57%
    18:00 +21°C° 0 mm 2 mps 753 mmHg 63%
    19:00 +21°C° 0 mm 1 mps 752 mmHg 70%
    20:00 +20°C° 0 mm 1 mps 752 mmHg 72%
    21:00 +18°C° 0 mm 1 mps 752 mmHg 75%
    22:00 +16°C° 0 mm 1 mps 752 mmHg 78%
    23:00 +16°C° 0 mm 2 mps 752 mmHg 79%

    21 June, Thursday

    Time Temperature Precipitation Wind Pressure Humidity
    00:00 +15°C° 0 mm 2 mps 752 mmHg 79%
    01:00 +15°C° 0 mm 2 mps 752 mmHg 79%
    02:00 +15°C° 0 mm 2 mps 751 mmHg 80%
    03:00 +15°C° 0 mm 2 mps 751 mmHg 80%
    04:00 +15°C° 0 mm 2 mps 751 mmHg 80%
    05:00 +17°C° 0 mm 3 mps 751 mmHg 76%
    06:00 +20°C° 0 mm 3 mps 750 mmHg 72%
    07:00 +22°C° 0 mm 3 mps 750 mmHg 68%
    08:00 +23°C° 0 mm 4 mps 749 mmHg 63%
    09:00 +25°C° 0 mm 4 mps 749 mmHg 59%
    10:00 +27°C° 0 mm 4 mps 748 mmHg 55%
    11:00 +27°C° 0 mm 5 mps 748 mmHg 54%
    12:00 +28°C° 0 mm 5 mps 747 mmHg 54%
    13:00 +28°C° 0 mm 5 mps 746 mmHg 53%
    14:00 +28°C° 0.2 mm 5 mps 745 mmHg 57%
    15:00 +28°C° 0.2 mm 5 mps 745 mmHg 60%
    16:00 +28°C° 0.2 mm 5 mps 744 mmHg 63%
    17:00 +26°C° 0.4 mm 4 mps 743 mmHg 69%
    18:00 +25°C° 0.4 mm 4 mps 743 mmHg 76%
    19:00 +24°C° 0.4 mm 3 mps 742 mmHg 82%
    20:00 +22°C° 0.3 mm 4 mps 741 mmHg 85%
    21:00 +21°C° 0.3 mm 4 mps 741 mmHg 87%
    22:00 +20°C° 0.3 mm 4 mps 740 mmHg 90%
    23:00 +20°C° 1.7 mm 4 mps 740 mmHg 92%

    22 June, Friday

    Time Temperature Precipitation Wind Pressure Humidity
    00:00 +19°C° 1.7 mm 4 mps 740 mmHg 94%
    01:00 +17°C° 1.7 mm 5 mps 740 mmHg 95%
    02:00 +16°C° 0.2 mm 5 mps 740 mmHg 94%
    03:00 +14°C° 0.2 mm 6 mps 741 mmHg 94%
    04:00 +13°C° 0.2 mm 6 mps 741 mmHg 93%
    05:00 +13°C° 0 mm 6 mps 742 mmHg 88%
    06:00 +12°C° 0 mm 7 mps 742 mmHg 83%
    07:00 +11°C° 0 mm 7 mps 743 mmHg 79%
    08:00 +12°C° 0 mm 7 mps 743 mmHg 73%
    09:00 +14°C° 0 mm 7 mps 744 mmHg 67%
    10:00 +15°C° 0 mm 7 mps 744 mmHg 62%
    11:00 +15°C° 0.1 mm 7 mps 744 mmHg 59%
    12:00 +16°C° 0.1 mm 7 mps 744 mmHg 57%
    13:00 +16°C° 0.1 mm 7 mps 744 mmHg 54%
    14:00 +16°C° 0 mm 7 mps 744 mmHg 54%
    15:00 +16°C° 0 mm 7 mps 744 mmHg 53%
    16:00 +16°C° 0 mm 7 mps 744 mmHg 52%
    17:00 +15°C° 0 mm 6 mps 744 mmHg 58%
    18:00 +14°C° 0 mm 6 mps 744 mmHg 64%
    19:00 +13°C° 0 mm 5 mps 744 mmHg 69%
    20:00 +12°C° 0 mm 5 mps 744 mmHg 72%
    21:00 +10°C° 0 mm 5 mps 744 mmHg 75%
    22:00 +9°C° 0 mm 5 mps 744 mmHg 78%
    23:00 +9°C° 0 mm 5 mps 744 mmHg 80%

    23 June, Saturday

    Time Temperature Precipitation Wind Pressure Humidity
    00:00 +9°C° 0 mm 5 mps 744 mmHg 82%
    01:00 +9°C° 0 mm 5 mps 744 mmHg 84%
    02:00 +8°C° 0 mm 5 mps 744 mmHg 85%
    03:00 +8°C° 0 mm 4 mps 744 mmHg 87%
    04:00 +8°C° 0 mm 4 mps 744 mmHg 89%
    05:00 +11°C° 0 mm 4 mps 744 mmHg 82%
    06:00 +12°C° 0 mm 5 mps 744 mmHg 75%
    07:00 +14°C° 0 mm 5 mps 745 mmHg 68%
    08:00 +15°C° 0.1 mm 5 mps 745 mmHg 65%
    09:00 +16°C° 0.1 mm 6 mps 745 mmHg 62%
    10:00 +17°C° 0.1 mm 6 mps 744 mmHg 59%
    11:00 +17°C° 0.3 mm 7 mps 745 mmHg 60%
    12:00 +17°C° 0.3 mm 7 mps 745 mmHg 62%
    13:00 +17°C° 0.3 mm 7 mps 745 mmHg 63%
    14:00 +16°C° 0.3 mm 7 mps 745 mmHg 66%
    15:00 +15°C° 0.3 mm 7 mps 745 mmHg 69%
    16:00 +15°C° 0.3 mm 7 mps 745 mmHg 72%
    17:00 +14°C° 0.2 mm 6 mps 745 mmHg 76%
    18:00 +13°C° 0.2 mm 5 mps 745 mmHg 80%
    19:00 +13°C° 0.2 mm 4 mps 746 mmHg 83%
    20:00 +12°C° 0.1 mm 4 mps 746 mmHg 86%
    21:00 +11°C° 0.1 mm 4 mps 746 mmHg 90%
    22:00 +10°C° 0.1 mm 4 mps 746 mmHg 93%
    23:00 +10°C° 0 mm 4 mps 747 mmHg 94%
    Show more